EDW86 LSZH-FACT

Flight info

Callsign EDW86
Flight time N/A
Altitude 34000
Route VEBIT T53 GERSA DCT SOSON DCT ODINA DCT PIDAD/N0486F350 DCT TALEP DCT VAREK DCT ERPIN DCT ETOIL DCT CIRTA UM2 CSO UM998 BOD/N0486F370 UM998 ENBUT DCT EBIMU UG727 ININA/N0487F390 UG727 BZ DCT KSA UT943 IMVEX/N0482F400 UT943 UNLOK/N0481F390 UT943 OMATA/N0481F410 UT943 VEDRY/N0479F400 UN185 OKLOK UQ23 DUMDO DCT ERDAS ERDAS1C
Aircraft A359/H-SABDE2E3GHIJ1J2J3J4J5LM1OP2RVWXYZ/LB1D1

Departure

Time 2026-05-04 20:19
Airport Zürich Airport (LSZH)

Arrival

Time N/A
Airport Cape Town International Airport (FACT)
Time Latitude Longitude Altitude Speed Heading
2026-05-04 20:02 47.46185 8.55494 1411 ft 0 kts 186°
2026-05-04 20:10 47.46208 8.55497 1405 ft 4 kts 186°
2026-05-04 20:10 47.46231 8.55500 1408 ft 4 kts 173°
2026-05-04 20:10 47.46252 8.55486 1412 ft 4 kts 122°
2026-05-04 20:10 47.46260 8.55451 1410 ft 4 kts 93°
2026-05-04 20:11 47.46261 8.55418 1406 ft 1 kts 96°
2026-05-04 20:11 47.46262 8.55417 1405 ft 0 kts 96°
2026-05-04 20:11 47.46263 8.55417 1405 ft 0 kts 96°
2026-05-04 20:11 47.46264 8.55417 1405 ft 0 kts 96°
2026-05-04 20:12 47.46265 8.55417 1405 ft 0 kts 96°
2026-05-04 20:12 47.46266 8.55417 1405 ft 0 kts 96°
2026-05-04 20:12 47.46266 8.55416 1412 ft 0 kts 96°
2026-05-04 20:12 47.46267 8.55416 1412 ft 0 kts 96°
2026-05-04 20:14 47.46267 8.55425 1412 ft 4 kts 96°
2026-05-04 20:15 47.46257 8.55492 1412 ft 8 kts 96°
2026-05-04 20:15 47.46250 8.55573 1411 ft 8 kts 97°
2026-05-04 20:15 47.46243 8.55660 1404 ft 9 kts 97°
2026-05-04 20:15 47.46235 8.55752 1413 ft 9 kts 97°
2026-05-04 20:16 47.46227 8.55855 1408 ft 11 kts 95°
2026-05-04 20:16 47.46216 8.55963 1410 ft 11 kts 108°
2026-05-04 20:16 47.46175 8.56041 1415 ft 8 kts 136°
2026-05-04 20:16 47.46132 8.56100 1412 ft 9 kts 137°
2026-05-04 20:17 47.46087 8.56163 1416 ft 10 kts 137°
2026-05-04 20:17 47.46036 8.56233 1415 ft 10 kts 136°
2026-05-04 20:17 47.46027 8.56300 1417 ft 5 kts 60°
2026-05-04 20:17 47.46054 8.56327 1415 ft 5 kts 30°
2026-05-04 20:18 47.46099 8.56377 1415 ft 10 kts 44°
2026-05-04 20:18 47.46153 8.56411 1411 ft 4 kts 334°
2026-05-04 20:18 47.46178 8.56376 1411 ft 14 kts 317°
2026-05-04 20:18 47.46420 8.56044 1407 ft 84 kts 317°
2026-05-04 20:19 47.47020 8.55229 1404 ft 148 kts 317°
2026-05-04 20:19 47.47887 8.54045 1728 ft 173 kts 317°
2026-05-04 20:19 47.48776 8.52849 2549 ft 175 kts 316°
2026-05-04 20:19 47.49813 8.51659 2896 ft 201 kts 330°
2026-05-04 20:20 47.51115 8.50800 3248 ft 209 kts 336°
2026-05-04 20:20 47.52331 8.49681 3692 ft 205 kts 310°
2026-05-04 20:20 47.52873 8.47779 4146 ft 204 kts 272°
2026-05-04 20:20 47.52566 8.45709 4384 ft 216 kts 246°
2026-05-04 20:21 47.51943 8.43602 4641 ft 228 kts 246°
2026-05-04 20:21 47.51281 8.41412 5005 ft 236 kts 245°
2026-05-04 20:21 47.48873 8.38485 6024 ft 238 kts 199°
2026-05-04 20:22 47.47275 8.37627 6335 ft 251 kts 197°
2026-05-04 20:22 47.45556 8.36917 6738 ft 260 kts 193°
2026-05-04 20:22 47.43781 8.36293 7271 ft 264 kts 192°
2026-05-04 20:22 47.41976 8.35669 7854 ft 267 kts 193°
2026-05-04 20:23 47.40167 8.35111 8463 ft 270 kts 187°
2026-05-04 20:23 47.38268 8.35284 9090 ft 274 kts 165°
2026-05-04 20:23 47.36497 8.36387 9718 ft 279 kts 155°
2026-05-04 20:23 47.34784 8.37694 10240 ft 285 kts 154°
2026-05-04 20:24 47.32980 8.39085 10519 ft 300 kts 154°
2026-05-04 20:24 47.31078 8.40533 10803 ft 315 kts 155°
2026-05-04 20:24 47.29079 8.42034 11085 ft 329 kts 155°
2026-05-04 20:24 47.26990 8.43584 11348 ft 343 kts 155°
2026-05-04 20:25 47.24807 8.45202 11633 ft 356 kts 155°
2026-05-04 20:25 47.22604 8.46837 12107 ft 361 kts 155°
2026-05-04 20:25 47.20322 8.48537 12406 ft 373 kts 155°
2026-05-04 20:25 47.17984 8.50260 12792 ft 379 kts 156°
2026-05-04 20:26 47.15481 8.51500 13203 ft 381 kts 172°
2026-05-04 20:26 47.12839 8.51999 13723 ft 383 kts 176°
2026-05-04 20:26 47.10174 8.52369 14202 ft 387 kts 176°
2026-05-04 20:26 47.07483 8.52739 14699 ft 390 kts 176°
2026-05-04 20:27 47.04770 8.53118 15132 ft 394 kts 176°
2026-05-04 20:27 47.02031 8.53511 15530 ft 398 kts 176°
2026-05-04 20:27 46.99273 8.53911 16102 ft 399 kts 176°
2026-05-04 20:27 46.96505 8.54311 16610 ft 401 kts 176°
2026-05-04 20:28 46.93706 8.54713 17064 ft 405 kts 177°
2026-05-04 20:28 46.90892 8.55118 17532 ft 408 kts 177°
2026-05-04 20:28 46.88062 8.55521 18008 ft 410 kts 177°
2026-05-04 20:28 46.85208 8.55928 18451 ft 413 kts 176°
2026-05-04 20:29 46.82384 8.56334 18786 ft 415 kts 176°
2026-05-04 20:29 46.79504 8.56751 19280 ft 416 kts 177°
2026-05-04 20:29 46.76619 8.57164 19727 ft 417 kts 177°
2026-05-04 20:29 46.73729 8.57578 20211 ft 418 kts 177°
2026-05-04 20:30 46.70817 8.57990 20673 ft 421 kts 177°
2026-05-04 20:30 46.67892 8.58404 21259 ft 421 kts 177°
2026-05-04 20:30 46.64975 8.58820 21773 ft 423 kts 176°
2026-05-04 20:30 46.62027 8.59238 22137 ft 427 kts 176°
2026-05-04 20:31 46.59059 8.59659 22603 ft 430 kts 176°
2026-05-04 20:31 46.56070 8.60085 23086 ft 432 kts 176°
2026-05-04 20:31 46.53064 8.60508 23538 ft 434 kts 176°
2026-05-04 20:31 46.50050 8.60932 23731 ft 436 kts 176°
2026-05-04 20:32 46.47022 8.61359 23963 ft 438 kts 176°
2026-05-04 20:32 46.43986 8.61790 24183 ft 439 kts 176°
2026-05-04 20:32 46.40982 8.62217 24400 ft 441 kts 176°
2026-05-04 20:32 46.37923 8.62648 24612 ft 442 kts 176°
2026-05-04 20:33 46.34847 8.63079 24871 ft 443 kts 176°
2026-05-04 20:33 46.31771 8.63511 25100 ft 445 kts 176°
2026-05-04 20:33 46.28675 8.63947 25361 ft 446 kts 176°
2026-05-04 20:33 46.25595 8.64379 25675 ft 445 kts 176°
2026-05-04 20:34 46.22498 8.64812 25854 ft 449 kts 176°
2026-05-04 20:34 46.19371 8.65250 26161 ft 452 kts 176°
2026-05-04 20:34 46.16233 8.65688 26519 ft 454 kts 176°
2026-05-04 20:34 46.13083 8.66127 26726 ft 455 kts 176°
2026-05-04 20:35 46.09917 8.66567 26955 ft 457 kts 176°
2026-05-04 20:35 46.06746 8.66865 27191 ft 457 kts 180°
2026-05-04 20:35 46.03564 8.66941 27469 ft 458 kts 181°
2026-05-04 20:35 46.00372 8.66926 27705 ft 459 kts 182°
2026-05-04 20:36 45.97176 8.66897 27950 ft 461 kts 182°
2026-05-04 20:36 45.93954 8.66888 28180 ft 462 kts 181°
2026-05-04 20:36 45.90730 8.66906 28373 ft 464 kts 181°
2026-05-04 20:36 45.87491 8.66950 28640 ft 465 kts 181°
2026-05-04 20:37 45.84251 8.67013 28866 ft 467 kts 181°
2026-05-04 20:37 45.81034 8.67084 29033 ft 469 kts 181°
2026-05-04 20:37 45.77771 8.67157 29185 ft 471 kts 181°
2026-05-04 20:37 45.74462 8.67230 29234 ft 476 kts 181°
2026-05-04 20:38 45.71143 8.67300 29504 ft 475 kts 181°
2026-05-04 20:38 45.67836 8.67368 29903 ft 473 kts 181°
2026-05-04 20:38 45.64553 8.67434 30222 ft 471 kts 181°
2026-05-04 20:38 45.61275 8.67501 30445 ft 471 kts 182°
2026-05-04 20:39 45.58031 8.67566 30669 ft 471 kts 182°
2026-05-04 20:39 45.54752 8.67632 30912 ft 471 kts 182°
2026-05-04 20:39 45.51484 8.67696 31173 ft 470 kts 182°
2026-05-04 20:39 45.48207 8.67760 31422 ft 469 kts 182°
2026-05-04 20:40 45.44947 8.67824 31664 ft 468 kts 182°
2026-05-04 20:40 45.41689 8.67889 31912 ft 467 kts 182°
2026-05-04 20:40 45.38446 8.67953 32168 ft 466 kts 182°
2026-05-04 20:40 45.35199 8.68016 32389 ft 466 kts 182°
2026-05-04 20:41 45.31959 8.68081 32602 ft 466 kts 182°
2026-05-04 20:41 45.28717 8.68146 32826 ft 465 kts 182°
2026-05-04 20:41 45.25485 8.68211 33028 ft 465 kts 182°
2026-05-04 20:41 45.22253 8.68276 33336 ft 462 kts 183°
2026-05-04 20:42 45.19038 8.68340 33519 ft 463 kts 183°
2026-05-04 20:42 45.15805 8.68401 33614 ft 465 kts 183°
2026-05-04 20:42 45.12565 8.68462 33762 ft 466 kts 183°
2026-05-04 20:42 45.09324 8.68524 33956 ft 466 kts 183°
2026-05-04 20:43 45.06081 8.68586 34087 ft 466 kts 183°
2026-05-04 20:43 45.02838 8.68650 34102 ft 466 kts 183°
2026-05-04 20:43 44.96410 8.68775 34082 ft 463 kts 183°
2026-05-04 20:44 44.89992 8.68900 34082 ft 460 kts 183°
2026-05-04 20:44 44.83571 8.69021 34076 ft 463 kts 184°
2026-05-04 20:45 44.77103 8.69141 34087 ft 464 kts 184°
2026-05-04 20:45 44.70642 8.69265 34089 ft 464 kts 184°
2026-05-04 20:46 44.64225 8.69385 34088 ft 464 kts 184°
2026-05-04 20:46 44.57762 8.69495 34097 ft 464 kts 184°
2026-05-04 20:47 44.51293 8.69608 34098 ft 464 kts 184°
2026-05-04 20:47 44.44860 8.69732 34099 ft 460 kts 184°
2026-05-04 20:48 44.39520 8.69833 34102 ft 463 kts 184°
2026-05-04 20:48 44.32020 8.69971 34100 ft 464 kts 184°
2026-05-04 20:49 44.26608 8.70072 34068 ft 464 kts 184°
2026-05-04 20:49 44.20203 8.70193 34072 ft 462 kts 184°
2026-05-04 20:50 44.13772 8.70313 34073 ft 462 kts 184°
2026-05-04 20:50 44.07348 8.70432 34060 ft 462 kts 184°
2026-05-04 20:51 44.00912 8.70551 34062 ft 462 kts 184°
2026-05-04 20:51 43.94511 8.70669 34061 ft 462 kts 184°
2026-05-04 20:52 43.88073 8.70789 34034 ft 461 kts 184°
2026-05-04 20:52 43.81662 8.70908 34042 ft 460 kts 184°
2026-05-04 20:53 43.75254 8.71026 34044 ft 459 kts 184°
2026-05-04 20:53 43.68889 8.71142 34030 ft 459 kts 185°
2026-05-04 20:54 43.65702 8.71202 34195 ft 454 kts 185°
2026-05-04 20:54 43.62564 8.71263 34531 ft 450 kts 185°
2026-05-04 20:54 43.59433 8.71303 34711 ft 449 kts 185°
2026-05-04 20:54 43.56309 8.71305 34845 ft 449 kts 185°
2026-05-04 20:55 43.53181 8.71291 34988 ft 449 kts 185°
2026-05-04 20:55 43.50059 8.71086 35025 ft 447 kts 191°
2026-05-04 20:55 43.44004 8.69291 35036 ft 444 kts 200°
2026-05-04 20:56 43.38126 8.66799 35032 ft 442 kts 201°
2026-05-04 20:56 43.32241 8.64296 35033 ft 442 kts 201°
2026-05-04 20:57 43.26385 8.61912 35040 ft 441 kts 200°
2026-05-04 20:57 43.20484 8.59564 35040 ft 441 kts 200°
2026-05-04 20:58 43.14593 8.57232 35042 ft 441 kts 200°
2026-05-04 20:58 43.08694 8.54897 35037 ft 441 kts 200°
2026-05-04 20:59 43.03121 8.52694 35040 ft 440 kts 200°
2026-05-04 20:59 42.97269 8.50384 35040 ft 440 kts 200°
2026-05-04 21:00 42.91379 8.48062 35021 ft 440 kts 200°